Location: Gwatt
(46.7204°N, 7.6223°E)
Time: 11:25:42
(UTC+00:00)

Transit 2A - Pass Details

Date: 16 May 2021
Orbit: 601 x 958 km, 66.7° (Epoch: 15 June)

Event Time Altitude Azimuth Distance (km) Brightness Sun altitude
Exits shadow 23:26:24 24° 92° (E) 1,277 7.1 -24.0°
Drops below altitude 10° 23:29:06 10° 56° (ENE) 1,956 8.5 -23.9°
Sets 23:31:35 0° 44° (NE) 2,857 9.7 -23.9°
